[[{"header":{"parameterUnit":"m.s-1","parameterCategory":1,"la1":30.2991,"la2":30.254,"lo1":-89.0895,"lo2":-89.0444,"dy":0.0017,"dx":0.0017,"nx":28,"ny":28,"refTime":"2024-07-08T09:00:00:Z","depth":0,"parameterNumber":2,"parameterNumberName":"U-component_of_WINDS"},"data":[0,0,0,0,0,0,0,0,0,0,0,0,0,0,0,0,0,0,0,0,0,0,0,0,0,0,0,0,0,0,0,0,0,0,0,0,0,0,0,0,0,0,0,0,0,0,0,0,0,0,0,0,0,0,0,0,0,0,-2.0056,-2.0057,0,-2.0119,-2.012,-2.0121,-2.0153,-2.0153,-2.0153,-2.0153,-2.0218,-2.022,-2.0221,0,0,0,0,0,0,0,0,0,0,0,0,0,-1.9965,-1.9966,-2.0056,-2.0057,-2.0058,-2.0119,-2.012,-2.0121,-2.0153,-2.0153,-2.0153,-2.0153,-2.0217,-2.0219,-2.0222,0,0,0,0,0,0,0,0,0,0,0,0,0,-2.0014,-1.9967,-2.0056,-2.0081,-2.0084,-2.0119,-2.012,-2.0121,-2.0153,-2.0153,-2.0153,-2.0153,-2.0217,-2.0219,-2.0222,-2.0237,0,0,-2.023,-2.0231,0,0,0,0,0,0,0,0,-2.0011,-2.0017,-2.0076,-2.0079,-2.0083,-2.0128,-2.0112,-2.016,-2.0153,-2.0127,-2.0153,-2.0153,-2.0188,-2.0193,-2.0205,-2.024,-2.0243,-2.023,-2.0232,-2.0233,-2.0233,0,0,0,0,0,0,0,-2.0007,-2.0015,-2.0081,-2.0077,-2.0081,-2.0089,-2.0096,-2.0121,-2.0156,-2.0129,-2.0131,-2.0138,-2.019,-2.0202,-2.0207,-2.0244,-2.023,-2.0232,-2.0234,-2.0235,-2.0296,-2.0296,0,0,0,0,0,0,-2.0,-2.0011,-2.0079,-2.0083,-2.0046,-2.0091,-2.0099,-2.0113,-2.0156,-2.0163,-2.0138,-2.0139,-2.0198,-2.0204,-2.0209,-2.023,-2.0233,-2.0235,-2.0236,-2.0296,-2.0296,-2.0296,0,0,0,0,0,0,-1.9998,-2.0006,-2.0076,-2.0048,-2.0058,-2.0093,-2.0109,-2.0115,-2.0127,-2.0163,-2.017,-2.0144,-2.0198,-2.0205,-2.023,-2.0233,-2.0236,-2.0239,-2.0295,-2.0296,-2.0296,-2.0272,0,0,0,0,0,0,-1.9995,-2.0005,-2.001,-2.0048,-2.0059,-2.0096,-2.0109,-2.0116,-2.0131,-2.0134,-2.0171,-2.0177,-2.0199,-2.0226,-2.0233,-2.0236,-2.0241,-2.0295,-2.0296,-2.0296,-2.0273,-2.0271,-2.027,0,0,0,0,0,-1.9992,-2.0001,-2.0011,-2.0019,-2.0067,-2.0096,-2.0102,-2.0127,-2.0131,-2.0138,-2.0161,-2.0176,-2.0231,-2.0228,-2.0236,-2.0241,-2.0295,-2.0295,-2.0296,-2.0273,-2.0272,-2.027,0,0,0,0,0,0,-1.9964,-2.0007,-2.0017,-2.0039,-2.0064,-2.0101,-2.011,-2.0124,-2.0148,-2.015,-2.0179,-2.0187,-2.0209,-2.0228,-2.0223,-2.0258,-2.0265,-2.0267,-2.0245,-2.0244,-2.0243,-2.0238,-2.0243,0,0,0,0,0,-1.996,-1.998,-2.0016,-2.0032,-2.0044,-2.0075,-2.0088,-2.0105,-2.0132,-2.0142,-2.0168,-2.0193,-2.0217,-2.0231,-2.0255,-2.0276,-2.0284,-2.0283,-2.0281,-2.028,-2.0281,-2.0294,-2.0294,-2.0296,-2.0296,-2.0296,0,0,-1.9953,-1.9979,-1.9989,-2.0027,-2.0048,-2.0068,-2.0083,-2.0104,-2.0119,-2.0146,-2.0171,-2.019,-2.022,-2.0243,-2.0255,-2.0259,-2.0283,-2.028,-2.0279,-2.0281,-2.0294,-2.0294,-2.0294,-2.0296,-2.0296,-2.0296,0,0,-1.995,-1.9971,-1.9987,-2.0008,-2.0039,-2.006,-2.0063,-2.0099,-2.0113,-2.0138,-2.0158,-2.0177,-2.0217,-2.0238,-2.0254,-2.0259,-2.0274,-2.0266,-2.0259,-2.0272,-2.0271,-2.0271,-2.0274,-2.0274,-2.0267,-2.0267,-2.0267,0,-1.9937,-1.9968,-1.9994,-2.0013,-2.0029,-2.0054,-2.0071,-2.0089,-2.0127,-2.0138,-2.0142,-2.0193,-2.0215,-2.0243,-2.0245,-2.0256,-2.0262,-2.0262,-2.0269,-2.027,-2.027,-2.0273,-2.0273,-2.0266,-2.0266,-2.0266,-2.0266,0,-1.9951,-1.9972,-1.9981,-2.0016,-2.0034,-2.0051,-2.008,-2.0095,-2.011,-2.013,-2.0156,-2.0184,-2.0214,-2.0222,-2.0237,-2.0252,-2.0254,-2.0263,-2.0271,-2.0268,-2.0271,-2.0272,-2.0264,-2.0265,-2.0265,-2.0265,0,0,-1.9932,-1.9981,-1.9984,-2.0001,-2.0037,-2.0054,-2.0074,-2.0102,-2.0115,-2.014,-2.0157,-2.019,-2.0199,-2.0217,-2.0235,-2.0246,-2.0249,-2.0254,-2.0255,-2.0252,-2.0268,-2.0261,-2.0262,-2.0259,-2.0259,-2.0259,-2.0266,0,-1.9935,-1.997,-1.9994,-2.002,-2.004,-2.0064,-2.0081,-2.0105,-2.0124,-2.0145,-2.0167,-2.019,-2.02,-2.0211,-2.0222,-2.0246,-2.0252,-2.0246,-2.0275,-2.0276,-2.0267,-2.0263,-2.0256,-2.0261,-2.0267,-2.0267,-2.0267,0,-1.9942,-1.9966,-1.9994,-2.0029,-2.0038,-2.0053,-2.0082,-2.01,-2.0129,-2.0143,-2.0163,-2.0181,-2.0203,-2.0209,-2.0239,-2.0234,-2.0248,-2.0261,-2.0262,-2.0266,-2.0272,-2.0267,-2.0263,-2.0264,-2.0269,-2.0269,-2.0269,0,-1.9926,-1.9966,-1.9988,-2.0001,-2.0042,-2.0052,-2.0069,-2.0098,-2.0114,-2.0139,-2.015,-2.0177,-2.0192,-2.0213,-2.0239,-2.024,-2.0267,-2.0275,-2.0279,-2.0279,-2.0284,-2.0283,-2.0282,-2.0292,-2.0292,-2.0292,-2.0292,0,-1.9927,-1.9943,-1.9981,-1.9994,-2.0014,-2.0041,-2.0059,-2.0079,-2.0104,-2.0123,-2.0145,-2.0162,-2.0194,-2.0215,-2.0235,-2.0258,-2.0265,-2.0276,-2.0282,-2.0275,-2.0273,-2.0284,-2.0285,-2.0293,-2.0292,-2.0292,-2.0292,0,-1.9912,-1.9938,-1.9964,-2.0,-2.001,-2.0022,-2.0054,-2.0068,-2.0089,-2.0112,-2.0119,-2.0152,-2.0177,-2.0205,-2.024,-2.0253,-2.0276,-2.0283,-2.0266,-2.0269,-2.0272,-2.0271,-2.0278,-2.028,-2.0288,-2.0288,-2.0288,0,-1.9911,-1.9924,-1.9961,-1.9975,-1.9992,-2.0014,-2.003,-2.0058,-2.0074,-2.0108,-2.0118,-2.0145,-2.0169,-2.0209,-2.0236,-2.0263,-2.0271,-2.0272,-2.0276,-2.0268,-2.0272,-2.0271,-2.0273,-2.027,-2.027,-2.027,-2.027,0,-1.9906,-1.9918,-1.994,-1.9967,-1.9986,-2.0009,-2.0032,-2.0042,-2.0075,-2.0092,-2.0118,-2.0137,-2.0172,-2.02,-2.023,-2.0249,-2.0265,-2.0268,-2.0271,-2.0264,-2.0254,-2.026,-2.0263,-2.0268,-2.0268,-2.0269,-2.0269,-2.0269,-1.9898,-1.9911,-1.9939,-1.9964,-1.9984,-2.0006,-2.0021,-2.0044,-2.0066,-2.0097,-2.0113,-2.0139,-2.0168,-2.0211,-2.0229,-2.0251,-2.0255,-2.0259,-2.026,-2.0261,-2.0259,-2.025,-2.0256,-2.0256,-2.0256,-2.0256,-2.0257,0,-1.9894,-1.9914,-1.9936,-1.9968,-1.9987,-2.0,-2.0027,-2.0043,-2.0066,-2.0091,-2.0114,-2.0144,-2.0171,-2.02,-2.0229,-2.024,-2.0249,-2.0247,-2.0247,-2.0251,-2.0253,-2.0248,-2.024,-2.024,-2.024,-2.024,-2.024,-2.024,-1.9895,-1.9917,-1.9933,-1.9966,-1.9986,-2.0011,-2.0026,-2.0046,-2.0067,-2.01,-2.0122,-2.0141,-2.0168,-2.0199,-2.0224,-2.0232,-2.0241,-2.0238,-2.0248,-2.0249,-2.0251,-2.0252,-2.0247,-2.0239,-2.0239,-2.0244,-2.0244,-2.0244]},{"header":{"parameterUnit":"m.s-1","parameterCategory":1,"la1":30.2991,"la2":30.254,"lo1":-89.0895,"lo2":-89.0444,"dy":0.0017,"dx":0.0017,"nx":28,"ny":28,"refTime":"2024-07-08T09:00:00:Z","depth":0,"parameterNumber":3,"parameterNumberName":"V-component_of_WINDS"},"data":[0,0,0,0,0,0,0,0,0,0,0,0,0,0,0,0,0,0,0,0,0,0,0,0,0,0,0,0,0,0,0,0,0,0,0,0,0,0,0,0,0,0,0,0,0,0,0,0,0,0,0,0,0,0,0,0,0,0,5.4929,5.4931,0,5.5076,5.5077,5.5079,5.5117,5.5116,5.5115,5.5114,5.5259,5.5264,5.5268,0,0,0,0,0,0,0,0,0,0,0,0,0,5.4675,5.4679,5.4929,5.4931,5.4933,5.5075,5.5077,5.5079,5.5117,5.5116,5.5114,5.5113,5.5258,5.5263,5.5269,0,0,0,0,0,0,0,0,0,0,0,0,0,5.4799,5.4681,5.4928,5.4968,5.4973,5.5075,5.5077,5.508,5.5117,5.5116,5.5114,5.5113,5.5256,5.5263,5.5269,5.534,0,0,5.5291,5.5294,0,0,0,0,0,0,0,0,5.4792,5.4809,5.4961,5.4966,5.4972,5.5077,5.5041,5.5167,5.5117,5.5062,5.5114,5.5112,5.5199,5.5211,5.5241,5.5347,5.5353,5.5292,5.5296,5.5299,5.5301,0,0,0,0,0,0,0,5.4784,5.4803,5.4987,5.4963,5.497,5.4977,5.4993,5.5065,5.5136,5.5067,5.507,5.5087,5.5202,5.5234,5.5245,5.5355,5.5291,5.5298,5.5302,5.5305,5.5525,5.5527,0,0,0,0,0,0,5.4769,5.4795,5.4982,5.4991,5.4877,5.4983,5.5001,5.5044,5.5136,5.5148,5.5088,5.5088,5.5223,5.5236,5.525,5.5338,5.5299,5.5306,5.531,5.5523,5.5525,5.5527,0,0,0,0,0,0,5.4763,5.4785,5.4976,5.4894,5.4919,5.4989,5.5037,5.5048,5.508,5.5152,5.5164,5.5109,5.5222,5.524,5.5318,5.5344,5.5309,5.5315,5.5522,5.5524,5.5526,5.5516,0,0,0,0,0,0,5.4756,5.4783,5.4812,5.4895,5.4923,5.5043,5.5039,5.5052,5.5093,5.5095,5.5174,5.5186,5.5223,5.5307,5.5325,5.5353,5.5321,5.5519,5.5523,5.5525,5.5514,5.5518,5.5521,0,0,0,0,0,5.4747,5.4803,5.4814,5.4836,5.4962,5.5045,5.5061,5.5103,5.5095,5.5124,5.5169,5.5184,5.5338,5.5314,5.5335,5.5366,5.5518,5.5522,5.5525,5.5513,5.5517,5.5521,0,0,0,0,0,0,5.472,5.4814,5.4827,5.4912,5.497,5.5051,5.5089,5.5106,5.5167,5.5166,5.5214,5.5232,5.5306,5.5343,5.5315,5.5438,5.5428,5.5436,5.5411,5.5416,5.5419,5.5409,5.5327,0,0,0,0,0,5.4725,5.4786,5.4864,5.4931,5.496,5.5019,5.5057,5.5084,5.5146,5.517,5.5222,5.5279,5.5341,5.538,5.5441,5.5519,5.5536,5.555,5.5553,5.5556,5.5562,5.5605,5.5612,5.5539,5.5539,5.5539,0,0,5.4734,5.4792,5.4828,5.4927,5.4976,5.5036,5.504,5.5104,5.5149,5.5179,5.5257,5.5296,5.5363,5.5441,5.5478,5.5475,5.5586,5.556,5.5562,5.5567,5.561,5.5617,5.5623,5.5541,5.5541,5.5541,0,0,5.4782,5.4833,5.4894,5.4942,5.5016,5.5055,5.5069,5.5147,5.5175,5.5253,5.5277,5.5329,5.5435,5.5482,5.5519,5.5582,5.5597,5.56,5.5617,5.5659,5.5665,5.567,5.5692,5.57,5.5606,5.5606,5.5606,0,5.4783,5.4878,5.4923,5.4986,5.5028,5.506,5.5121,5.5165,5.5253,5.5281,5.5276,5.5408,5.5455,5.5545,5.556,5.5589,5.5606,5.5592,5.5661,5.5666,5.5672,5.5694,5.5702,5.5606,5.5606,5.5606,5.5606,0,5.4876,5.4941,5.4981,5.5068,5.5114,5.5176,5.5228,5.5269,5.5291,5.533,5.5408,5.5466,5.5538,5.5561,5.5583,5.5653,5.5648,5.5651,5.5642,5.5678,5.5699,5.5708,5.5606,5.5606,5.5606,5.5606,0,0,5.4914,5.5023,5.5037,5.5076,5.5158,5.5208,5.527,5.5342,5.5376,5.5435,5.5488,5.5575,5.5578,5.5621,5.5648,5.5684,5.573,5.5683,5.5685,5.569,5.5809,5.5807,5.5816,5.574,5.5742,5.5743,5.5803,0,5.4972,5.5087,5.5128,5.5221,5.528,5.5309,5.5363,5.5418,5.5455,5.5509,5.5549,5.5611,5.561,5.5636,5.5673,5.5717,5.5755,5.5713,5.5788,5.579,5.5771,5.5827,5.5825,5.5879,5.5812,5.5813,5.5814,0,5.5056,5.5118,5.5217,5.5291,5.5318,5.5365,5.5434,5.5486,5.5548,5.5572,5.5619,5.5643,5.5707,5.5693,5.578,5.5751,5.5784,5.5809,5.5812,5.5821,5.5805,5.5837,5.5898,5.5906,5.5828,5.5827,5.5826,0,5.5074,5.5181,5.5255,5.5287,5.5375,5.5407,5.5445,5.5506,5.5546,5.5605,5.5631,5.5696,5.5731,5.578,5.5821,5.5807,5.5904,5.5894,5.5925,5.5924,5.5945,5.5943,5.6012,5.5965,5.5965,5.5965,5.5965,0,5.5136,5.5195,5.5264,5.5309,5.5375,5.542,5.5485,5.5524,5.5577,5.5629,5.5657,5.5704,5.5755,5.5808,5.584,5.5907,5.5923,5.5943,5.5951,5.5941,5.5939,5.5964,5.5961,5.5967,5.5967,5.5966,5.5966,0,5.5167,5.5216,5.5297,5.5373,5.5393,5.5439,5.5504,5.5547,5.5584,5.5649,5.5667,5.5725,5.5789,5.5834,5.5917,5.5938,5.601,5.6017,5.599,5.5994,5.6023,5.6019,5.611,5.6124,5.6067,5.6068,5.6068,0,5.5204,5.5251,5.5332,5.5369,5.5407,5.5466,5.5508,5.5552,5.5594,5.5667,5.5701,5.5767,5.5823,5.5923,5.5972,5.6034,5.6043,5.6071,5.6053,5.6041,5.6044,5.6041,5.6045,5.6074,5.6074,5.6074,5.6075,0,5.5264,5.5285,5.5345,5.5412,5.546,5.5515,5.5569,5.5597,5.5651,5.5696,5.5762,5.5805,5.5889,5.5954,5.6021,5.6057,5.6075,5.6079,5.609,5.6081,5.6063,5.6073,5.5997,5.6078,5.6077,5.6077,5.6077,5.6077,5.53,5.5343,5.5406,5.547,5.5516,5.5566,5.561,5.5653,5.571,5.5783,5.5804,5.5873,5.5931,5.6023,5.606,5.6113,5.6112,5.6127,5.6131,5.6134,5.6134,5.6054,5.6126,5.6126,5.6126,5.6126,5.6126,0,5.5362,5.5404,5.5462,5.5538,5.5588,5.56,5.566,5.5701,5.5762,5.5815,5.5869,5.5944,5.6007,5.6059,5.6124,5.6156,5.6165,5.6171,5.6169,5.6177,5.6132,5.6117,5.6162,5.6162,5.6162,5.6162,5.6162,5.6162,5.54,5.5472,5.55,5.5594,5.5635,5.5704,5.5737,5.5782,5.5825,5.5909,5.5961,5.5995,5.6048,5.6116,5.6173,5.6186,5.6209,5.6213,5.6228,5.6185,5.6181,5.6177,5.6162,5.6217,5.6217,5.6269,5.627,5.627]}]]